[[{"header":{"parameterUnit":"m.s-1","parameterCategory":1,"la1":30.2992,"la2":30.254,"lo1":-89.0895,"lo2":-89.0443,"dy":0.0025,"dx":0.0025,"nx":19,"ny":19,"refTime":"2026-04-05T21:00:00:Z","depth":0,"parameterNumber":2,"parameterNumberName":"U-component_of_WINDS"},"data":[0,0,0,-2.7978,-2.7982,-2.8162,-2.8163,-2.8411,-2.8413,0,0,0,0,0,0,0,0,0,0,0,-2.7932,-2.7934,-2.7977,-2.7982,-2.8162,-2.8163,-2.8411,-2.8413,0,0,0,0,0,0,0,0,0,0,0,-2.7931,-2.7933,-2.7936,-2.7983,-2.8162,-2.8163,-2.841,-2.8268,0,0,0,0,0,0,0,0,0,0,-2.809,-2.8055,-2.7933,-2.7936,-2.7984,-2.8162,-2.8163,-2.8261,-2.8277,-2.8336,0,-2.8387,0,-2.8404,-2.8431,-2.8432,0,0,0,-2.7977,-2.8042,-2.8083,-2.7936,-2.7985,-2.8162,-2.808,-2.827,-2.8288,-2.8357,-2.8391,-2.84,-2.8408,-2.8433,-2.8434,-2.8782,-2.8784,0,0,-2.7967,-2.7969,-2.8071,-2.8095,-2.8065,-2.8074,-2.8085,-2.8281,-2.8319,-2.8392,-2.8405,-2.8412,-2.8434,-2.8436,-2.878,-2.8783,0,0,0,-2.7942,-2.7963,-2.7999,-2.8085,-2.8116,-2.8079,-2.8092,-2.831,-2.8322,-2.8408,-2.8415,-2.8436,-2.8439,-2.8778,-2.8781,-2.8876,0,0,0,-2.7935,-2.7948,-2.7995,-2.7998,-2.8113,-2.8215,-2.8118,-2.8308,-2.833,-2.8414,-2.8436,-2.8442,-2.8776,-2.878,-2.8869,-2.8922,0,0,0,-2.7918,-2.7945,-2.7974,-2.7998,-2.8075,-2.8212,-2.8234,-2.8313,-2.8335,-2.8432,-2.8442,-2.8775,-2.8779,-2.8863,-2.8912,-2.9016,0,0,0,-2.79,-2.8056,-2.7975,-2.8153,-2.8073,-2.8267,-2.8233,-2.8378,-2.8472,-2.8437,-2.8777,-2.8781,-2.8861,-2.8905,-2.9009,-2.9106,-2.9145,0,0,-2.8098,-2.808,-2.8184,-2.8117,-2.8326,-2.824,-2.8464,-2.8549,-2.8557,-2.8707,-2.8716,-2.8871,-2.8911,-2.9015,-2.9361,-2.9393,0,0,0,-2.8248,-2.8324,-2.8378,-2.8467,-2.8534,-2.8597,-2.8647,-2.8679,-2.8806,-2.8633,-2.8935,-2.8959,-2.902,-2.9066,-2.9093,-2.9147,-2.8801,-2.8801,-2.8801,-2.8535,-2.8535,-2.8708,-2.8731,-2.8817,-2.8866,-2.8938,-2.8989,-2.8965,-2.9037,-2.9083,-2.9293,-2.9347,-2.9367,-2.9423,-2.9131,-2.9131,-2.9132,-2.9132,-2.8829,-2.8937,-2.8899,-2.9054,-2.9054,-2.9185,-2.9239,-2.9218,-2.9342,-2.9258,-2.9312,-2.9223,-2.9401,-2.945,-2.9139,-2.9138,-2.9137,-2.9136,-2.9136,-2.9019,-2.9071,-2.9105,-2.9233,-2.9333,-2.935,-2.947,-2.9465,-2.9462,-2.9515,-2.9565,-2.9563,-2.9564,-2.9538,-2.9539,-2.954,-2.954,-2.9541,-2.9541,-2.9205,-2.924,-2.9341,-2.9425,-2.9481,-2.9555,-2.9606,-2.9663,-2.9725,-2.9712,-2.9713,-2.9684,-2.9417,-2.9352,-2.9553,-2.9551,-2.9549,-2.9548,-2.9547,-2.9509,-2.9439,-2.9595,-2.9652,-2.975,-2.9851,-2.9842,-2.9957,-3.0003,-3.0064,-3.0022,-2.9824,-2.9807,-2.9785,-2.9732,-3.0019,-3.0019,-3.0019,-3.0019,-2.9672,-2.9661,-2.982,-2.9911,-3.0,-3.0007,-3.0187,-3.0229,-3.0261,-3.029,-3.0247,-3.0174,-3.0152,-3.0148,-3.0119,-3.0069,-3.0435,-3.0436,-3.0436,-2.9861,-2.9858,-3.0011,-3.0038,-3.0115,-3.0182,-3.0351,-3.046,-3.0482,-3.0453,-3.0314,-3.0296,-3.0178,-3.014,-3.0111,-3.0066,-2.9975,0,0]},{"header":{"parameterUnit":"m.s-1","parameterCategory":1,"la1":30.2992,"la2":30.254,"lo1":-89.0895,"lo2":-89.0443,"dy":0.0025,"dx":0.0025,"nx":19,"ny":19,"refTime":"2026-04-05T21:00:00:Z","depth":0,"parameterNumber":3,"parameterNumberName":"V-component_of_WINDS"},"data":[0,0,0,-7.4926,-7.493,-7.5136,-7.5136,-7.5413,-7.5416,0,0,0,0,0,0,0,0,0,0,0,-7.4878,-7.488,-7.4925,-7.4931,-7.5136,-7.5136,-7.5413,-7.5416,0,0,0,0,0,0,0,0,0,0,0,-7.4877,-7.488,-7.4883,-7.4932,-7.5136,-7.5137,-7.5412,-7.5251,0,0,0,0,0,0,0,0,0,0,-7.5049,-7.5019,-7.4879,-7.4883,-7.4933,-7.5135,-7.5137,-7.5243,-7.5261,-7.5328,0,-7.5394,0,-7.541,-7.5436,-7.5437,0,0,0,-7.492,-7.5004,-7.5048,-7.4883,-7.4935,-7.5135,-7.504,-7.5253,-7.5274,-7.5352,-7.5398,-7.5408,-7.5415,-7.5438,-7.5439,-7.5867,-7.5869,0,0,-7.4909,-7.4921,-7.5034,-7.5062,-7.5036,-7.5034,-7.5047,-7.5265,-7.5315,-7.5399,-7.5414,-7.5419,-7.544,-7.5442,-7.5865,-7.5868,0,0,0,-7.4884,-7.4914,-7.4952,-7.5051,-7.5087,-7.504,-7.5055,-7.5305,-7.5316,-7.5417,-7.5422,-7.5441,-7.5445,-7.5862,-7.5866,-7.6002,0,0,0,-7.4876,-7.4899,-7.4947,-7.4957,-7.5084,-7.52,-7.509,-7.5301,-7.5326,-7.5421,-7.5442,-7.5448,-7.5859,-7.5864,-7.5993,-7.6065,0,0,0,-7.486,-7.4897,-7.4931,-7.4957,-7.5046,-7.5196,-7.522,-7.5306,-7.533,-7.5437,-7.5449,-7.5857,-7.5863,-7.5984,-7.6051,-7.6181,0,0,0,-7.4845,-7.5049,-7.4934,-7.5162,-7.5045,-7.528,-7.5218,-7.5392,-7.55,-7.5443,-7.586,-7.5865,-7.5981,-7.6042,-7.6172,-7.6293,-7.6345,0,0,-7.5109,-7.5081,-7.5215,-7.5117,-7.5377,-7.5247,-7.5525,-7.5611,-7.5608,-7.578,-7.579,-7.5996,-7.605,-7.6179,-7.6631,-7.6673,0,0,0,-7.5302,-7.5398,-7.5464,-7.557,-7.5642,-7.5708,-7.5751,-7.5782,-7.5928,-7.5701,-7.6077,-7.6109,-7.6184,-7.6242,-7.6277,-7.634,-7.5892,-7.5892,-7.5891,-7.5693,-7.568,-7.5899,-7.5911,-7.6013,-7.6055,-7.6135,-7.6184,-7.6139,-7.6228,-7.628,-7.6556,-7.6624,-7.665,-7.6716,-7.6342,-7.6343,-7.6343,-7.6344,-7.6077,-7.6211,-7.6148,-7.6338,-7.6322,-7.648,-7.6526,-7.6489,-7.6632,-7.6517,-7.6582,-7.6459,-7.6696,-7.6753,-7.6354,-7.6352,-7.6351,-7.635,-7.6349,-7.6332,-7.6393,-7.643,-7.6579,-7.6695,-7.6697,-7.6838,-7.6817,-7.6798,-7.6863,-7.6914,-7.6911,-7.6906,-7.6889,-7.689,-7.6891,-7.6891,-7.6892,-7.6893,-7.6582,-7.6618,-7.6741,-7.6834,-7.6898,-7.6979,-7.702,-7.7081,-7.7143,-7.7116,-7.7117,-7.7063,-7.6723,-7.6637,-7.6908,-7.6905,-7.6903,-7.6902,-7.6901,-7.6977,-7.6884,-7.7074,-7.7139,-7.7244,-7.736,-7.7331,-7.7456,-7.7503,-7.7572,-7.7504,-7.7256,-7.7225,-7.7197,-7.7127,-7.7507,-7.7507,-7.7507,-7.7507,-7.7192,-7.7175,-7.7364,-7.7468,-7.7566,-7.7559,-7.777,-7.7803,-7.7822,-7.7849,-7.779,-7.7695,-7.7667,-7.7653,-7.7615,-7.7548,-7.8028,-7.8028,-7.8029,-7.7434,-7.7425,-7.7612,-7.7632,-7.7712,-7.778,-7.7978,-7.8096,-7.8097,-7.8049,-7.787,-7.7848,-7.7693,-7.7644,-7.7593,-7.7535,-7.7413,0,0]}]]